• In Czech Republic
  • List of Countries
  • For 7 days
  • Water Temperature
  • Satellite Maps
  • Weather Map
  • Weather Widgets
  • user-avatar
    Login

    Hourly Weather Kalgoorlie

    Today, 19 November, Sunday

    Time Temperature Precipitation Wind Pressure Humidity
    00:00 +22°C° 0 mm 4 mps 725 mmHg 41%
    01:00 +22°C° 0 mm 4 mps 725 mmHg 45%
    02:00 +21°C° 0 mm 4 mps 725 mmHg 51%
    03:00 +20°C° 0 mm 4 mps 726 mmHg 56%
    04:00 +20°C° 0 mm 3 mps 726 mmHg 60%
    05:00 +19°C° 0 mm 3 mps 726 mmHg 64%
    06:00 +20°C° 0 mm 3 mps 726 mmHg 59%
    07:00 +22°C° 0 mm 3 mps 727 mmHg 53%
    08:00 +24°C° 0 mm 3 mps 727 mmHg 48%
    09:00 +26°C° 0 mm 3 mps 727 mmHg 42%
    10:00 +27°C° 0 mm 2 mps 727 mmHg 36%
    11:00 +28°C° 0 mm 2 mps 727 mmHg 31%
    12:00 +30°C° 0 mm 2 mps 726 mmHg 28%
    13:00 +31°C° 0 mm 2 mps 726 mmHg 25%
    14:00 +32°C° 0 mm 2 mps 725 mmHg 23%
    15:00 +32°C° 0 mm 2 mps 725 mmHg 22%
    16:00 +32°C° 0 mm 2 mps 725 mmHg 21%
    17:00 +32°C° 0 mm 2 mps 725 mmHg 20%
    18:00 +32°C° 0 mm 2 mps 726 mmHg 22%
    19:00 +31°C° 0 mm 2 mps 726 mmHg 23%
    20:00 +30°C° 0 mm 2 mps 726 mmHg 25%
    21:00 +29°C° 0 mm 3 mps 726 mmHg 30%
    22:00 +28°C° 0 mm 5 mps 726 mmHg 35%
    23:00 +27°C° 0 mm 6 mps 727 mmHg 40%

    Tomorrow, 20 November, Monday

    Time Temperature Precipitation Wind Pressure Humidity
    00:00 +26°C° 0 mm 6 mps 726 mmHg 45%
    01:00 +24°C° 0 mm 6 mps 726 mmHg 51%
    02:00 +23°C° 0 mm 7 mps 726 mmHg 56%
    03:00 +22°C° 0 mm 6 mps 726 mmHg 58%
    04:00 +22°C° 0 mm 6 mps 726 mmHg 59%
    05:00 +22°C° 0 mm 5 mps 726 mmHg 61%
    06:00 +23°C° 0 mm 5 mps 726 mmHg 55%
    07:00 +26°C° 0 mm 6 mps 726 mmHg 49%
    08:00 +28°C° 0 mm 6 mps 727 mmHg 42%
    09:00 +30°C° 0 mm 6 mps 726 mmHg 35%
    10:00 +33°C° 0 mm 5 mps 726 mmHg 27%
    11:00 +35°C° 0 mm 5 mps 726 mmHg 20%
    12:00 +36°C° 0 mm 5 mps 725 mmHg 17%
    13:00 +37°C° 0 mm 5 mps 725 mmHg 14%
    14:00 +40°C° 0 mm 6 mps 724 mmHg 11%
    15:00 +39°C° 0 mm 6 mps 724 mmHg 10%
    16:00 +39°C° 0 mm 6 mps 724 mmHg 10%
    17:00 +39°C° 0 mm 6 mps 723 mmHg 10%
    18:00 +36°C° 0 mm 7 mps 724 mmHg 12%
    19:00 +35°C° 0 mm 7 mps 724 mmHg 15%
    20:00 +33°C° 0 mm 7 mps 725 mmHg 17%
    21:00 +31°C° 0 mm 8 mps 725 mmHg 28%
    22:00 +27°C° 0 mm 8 mps 725 mmHg 38%
    23:00 +24°C° 0 mm 9 mps 726 mmHg 49%

    Day after tomorrow, 21 November, Tuesday

    Time Temperature Precipitation Wind Pressure Humidity
    00:00 +23°C° 0 mm 8 mps 725 mmHg 53%
    01:00 +22°C° 0 mm 8 mps 725 mmHg 56%
    02:00 +21°C° 0 mm 8 mps 725 mmHg 60%
    03:00 +20°C° 0 mm 8 mps 726 mmHg 62%
    04:00 +20°C° 0 mm 8 mps 726 mmHg 64%
    05:00 +18°C° 0 mm 8 mps 726 mmHg 66%
    06:00 +20°C° 0 mm 8 mps 727 mmHg 62%
    07:00 +21°C° 0 mm 8 mps 728 mmHg 58%
    08:00 +22°C° 0 mm 8 mps 728 mmHg 54%
    09:00 +24°C° 0 mm 8 mps 728 mmHg 48%
    10:00 +27°C° 0 mm 8 mps 728 mmHg 42%
    11:00 +28°C° 0 mm 8 mps 729 mmHg 36%
    12:00 +29°C° 0 mm 8 mps 728 mmHg 34%
    13:00 +30°C° 0 mm 7 mps 728 mmHg 31%
    14:00 +30°C° 0 mm 7 mps 728 mmHg 29%
    15:00 +29°C° 0 mm 8 mps 728 mmHg 33%
    16:00 +28°C° 0 mm 9 mps 728 mmHg 37%
    17:00 +26°C° 0 mm 10 mps 728 mmHg 41%
    18:00 +24°C° 0 mm 10 mps 729 mmHg 43%
    19:00 +22°C° 0 mm 10 mps 730 mmHg 45%
    20:00 +19°C° 0 mm 10 mps 731 mmHg 46%
    21:00 +18°C° 0 mm 10 mps 731 mmHg 47%
    22:00 +17°C° 0 mm 10 mps 731 mmHg 47%
    23:00 +14°C° 0 mm 10 mps 732 mmHg 47%

    22 November, Wednesday

    Time Temperature Precipitation Wind Pressure Humidity
    00:00 +13°C° 0 mm 9 mps 732 mmHg 49%
    01:00 +12°C° 0 mm 8 mps 732 mmHg 52%
    02:00 +11°C° 0 mm 8 mps 732 mmHg 55%
    03:00 +11°C° 0 mm 7 mps 732 mmHg 58%
    04:00 +11°C° 0 mm 7 mps 732 mmHg 62%
    05:00 +10°C° 0 mm 6 mps 732 mmHg 66%
    06:00 +12°C° 0 mm 7 mps 732 mmHg 58%
    07:00 +14°C° 0 mm 7 mps 733 mmHg 51%
    08:00 +16°C° 0 mm 7 mps 733 mmHg 43%
    09:00 +18°C° 0 mm 7 mps 733 mmHg 36%
    10:00 +21°C° 0 mm 6 mps 732 mmHg 28%
    11:00 +23°C° 0 mm 6 mps 732 mmHg 21%
    12:00 +24°C° 0 mm 6 mps 731 mmHg 18%
    13:00 +27°C° 0 mm 6 mps 731 mmHg 16%
    14:00 +28°C° 0 mm 5 mps 730 mmHg 14%
    15:00 +28°C° 0 mm 5 mps 730 mmHg 14%
    16:00 +28°C° 0 mm 6 mps 730 mmHg 14%
    17:00 +28°C° 0 mm 6 mps 730 mmHg 14%
    18:00 +27°C° 0 mm 6 mps 730 mmHg 16%
    19:00 +26°C° 0 mm 6 mps 731 mmHg 19%
    20:00 +23°C° 0 mm 6 mps 731 mmHg 22%
    21:00 +22°C° 0 mm 6 mps 732 mmHg 27%
    22:00 +20°C° 0 mm 7 mps 732 mmHg 32%
    23:00 +17°C° 0 mm 8 mps 732 mmHg 37%

    23 November, Thursday

    Time Temperature Precipitation Wind Pressure Humidity
    00:00 +16°C° 0 mm 8 mps 732 mmHg 42%
    01:00 +15°C° 0 mm 7 mps 732 mmHg 47%
    02:00 +14°C° 0 mm 7 mps 731 mmHg 52%
    03:00 +14°C° 0 mm 6 mps 732 mmHg 55%
    04:00 +13°C° 0 mm 6 mps 732 mmHg 57%
    05:00 +13°C° 0 mm 5 mps 732 mmHg 60%
    06:00 +14°C° 0 mm 5 mps 732 mmHg 54%
    07:00 +16°C° 0 mm 5 mps 733 mmHg 47%
    08:00 +17°C° 0 mm 6 mps 733 mmHg 41%
    09:00 +20°C° 0 mm 6 mps 733 mmHg 34%
    10:00 +22°C° 0 mm 6 mps 732 mmHg 27%
    11:00 +24°C° 0 mm 6 mps 732 mmHg 20%
    12:00 +27°C° 0 mm 5 mps 731 mmHg 18%
    13:00 +28°C° 0 mm 5 mps 730 mmHg 15%
    14:00 +29°C° 0 mm 5 mps 730 mmHg 13%
    15:00 +29°C° 0 mm 5 mps 730 mmHg 13%
    16:00 +29°C° 0 mm 5 mps 730 mmHg 13%
    17:00 +29°C° 0 mm 5 mps 730 mmHg 13%
    18:00 +28°C° 0 mm 5 mps 730 mmHg 15%
    19:00 +27°C° 0 mm 5 mps 730 mmHg 17%
    20:00 +25°C° 0 mm 5 mps 730 mmHg 19%
    21:00 +23°C° 0 mm 6 mps 731 mmHg 22%
    22:00 +22°C° 0 mm 7 mps 731 mmHg 26%
    23:00 +21°C° 0 mm 7 mps 731 mmHg 29%

    24 November, Friday

    Time Temperature Precipitation Wind Pressure Humidity
    00:00 +20°C° 0 mm 7 mps 730 mmHg 34%
    01:00 +18°C° 0 mm 7 mps 730 mmHg 38%
    02:00 +17°C° 0 mm 7 mps 730 mmHg 43%
    03:00 +17°C° 0 mm 6 mps 730 mmHg 46%
    04:00 +16°C° 0 mm 6 mps 730 mmHg 49%
    05:00 +16°C° 0 mm 6 mps 730 mmHg 52%
    06:00 +17°C° 0 mm 6 mps 731 mmHg 48%
    07:00 +20°C° 0 mm 6 mps 731 mmHg 43%
    08:00 +21°C° 0 mm 6 mps 731 mmHg 39%
    09:00 +23°C° 0 mm 5 mps 731 mmHg 33%
    10:00 +26°C° 0 mm 5 mps 730 mmHg 28%
    11:00 +28°C° 0 mm 4 mps 730 mmHg 22%
    12:00 +29°C° 0 mm 4 mps 729 mmHg 20%
    13:00 +30°C° 0 mm 3 mps 729 mmHg 18%
    14:00 +31°C° 0 mm 3 mps 728 mmHg 15%
    15:00 +33°C° 0 mm 3 mps 728 mmHg 15%
    16:00 +32°C° 0 mm 2 mps 728 mmHg 14%
    17:00 +32°C° 0 mm 2 mps 728 mmHg 14%
    18:00 +31°C° 0 mm 2 mps 728 mmHg 14%
    19:00 +30°C° 0 mm 3 mps 728 mmHg 15%
    20:00 +29°C° 0 mm 3 mps 728 mmHg 16%
    21:00 +29°C° 0 mm 4 mps 728 mmHg 17%
    22:00 +28°C° 0 mm 4 mps 728 mmHg 17%
    23:00 +27°C° 0 mm 5 mps 728 mmHg 18%
    Show more